Location: Nied?wied?
(53.3665°N, 14.8184°E)
Time: 23:49:05
(UTC+00:00)

Okean 3 - Pass Details

Date: 03 March 2021
Orbit: 577 x 600 km, 82.5° (Epoch: 11 April)

Event Time Altitude Azimuth Distance (km) Brightness Sun altitude
Rises 18:34:29 0° 350° (N) 2,832 7.3 -17.4°
Reaches altitude 10° 18:36:43 10° 353° (N) 1,930 6.3 -17.7°
Maximum altitude 18:40:57 69° 76° (ENE) 639 3.4 -18.3°
Enters shadow 18:43:04 29° 154° (SSE) 1,105 4.5 -18.6°
